Flag for Austria Weather past 2 weeks in Kapfenberg, Styria, Austria

Now
61 °F

Partly sunny.


Feels Like: 61 °F
Forecast: 54 / 76 °F
Wind: 2 mph from South

Location: Zeltweg

Current Time: Aug 2, 2014 at 8:11:32 AM

Latest Report: Aug 2, 2014 at 6:50 AM


Visibility: 5 mi

Pressure: 29.95 "Hg

Humidity: 94%

Dew point: 59 °F

Location of KapfenbergLocation

Historic Weather in Kapfenberg — Graph

°F

Kapfenberg temperature yesterday

Maximum temperature yesterday: 77 °F (at 3:50 PM)
Minimum temperature yesterday: 57 °F (at 4:50 AM)
Average temperature yesterday: 68 °F

Past Weeks' High & Low Weather Summary

 TemperatureHumidityPressure
High86 °F (Jul 20, 12:50 PM)100% (Jul 18, 6:50 AM)30.21 "Hg (Jul 18, 6:50 AM)
Low46 °F (Jul 24, 5:50 AM)32% (Jul 18, 6:50 PM)29.77 "Hg (Jul 29, 4:20 PM)
Average67 °F74%29.93 "Hg
* Reported Jul 18 6:50 AM — Aug 2 6:50 AM, Kapfenberg, Weather by CustomWeather, © 2014

Note: Actual official high and low records may vary slightly from our data, if they occured in-between our weather recording intervals... More about our weather records

Advertising

Kapfenberg weather history for previous 24 hours

 ConditionsComfort  
Time TempWeatherWind HumidityBarometerVisibility
6:50 AM
Aug 2
61 °FPartly sunny.2 mph94%29.95 "Hg5 mi
5:50 AM61 °FLow clouds.3 mph94%29.95 "Hg9 mi
4:50 AM59 °FPassing clouds.2 mph94%29.92 "Hg9 mi
10:50 PM
Aug 1
66 °FThunderstorms. Passing clouds.1 mph83%29.95 "Hg9 mi
9:50 PM66 °FPartly cloudy.3 mph83%29.92 "Hg9 mi
8:50 PM70 °FPartly sunny.5 mph78%29.92 "Hg19 mi
7:50 PM70 °FPartly sunny.2 mph78%29.92 "Hg19 mi
6:50 PM72 °FPartly sunny.2 mph73%29.89 "Hg19 mi
5:50 PM73 °FPartly sunny.5 mph65%29.89 "Hg19 mi
4:50 PM75 °FBroken clouds.9 mph57%29.89 "Hg19 mi
3:50 PM77 °FBroken clouds.2 mph57%29.89 "Hg19 mi
3:20 PM73 °FBroken clouds.3 mph61%29.89 "Hg19 mi
2:50 PM75 °FBroken clouds.5 mph54%29.92 "Hg19 mi
2:20 PM75 °FBroken clouds.8 mph57%29.92 "Hg19 mi
1:50 PM75 °FPartly sunny.6 mph57%29.92 "Hg19 mi
1:20 PM75 °FScattered clouds.6 mph57%29.92 "Hg19 mi
12:50 PM75 °FScattered clouds.7 mph57%29.92 "Hg19 mi
12:20 PM73 °FScattered clouds.7 mph61%29.92 "Hg19 mi
11:50 AM73 °FScattered clouds.3 mph57%29.92 "Hg19 mi
11:20 AM72 °FPartly sunny.1 mph65%29.95 "Hg19 mi
10:50 AM70 °FPartly sunny.1 mph64%29.95 "Hg16 mi
10:20 AM68 °FPartly sunny.3 mph78%29.95 "Hg12 mi
9:50 AM64 °FPartly sunny.1 mph83%29.95 "Hg9 mi
9:20 AM63 °FBroken clouds.1 mph88%29.95 "Hg9 mi
8:50 AM61 °FPartly sunny.2 mph94%29.95 "Hg4 mi
8:20 AM61 °FPartly sunny.2 mph94%29.95 "Hg4 mi
Weather by CustomWeather, © 2014

See weather overviewHow to use our weather pages